Time,TemperatureF,DewpointF,PressureIn,WindDirection,WindDirectionDegrees,WindSpeedMPH,WindSpeedGustMPH,Humidity,HourlyPrecipIn,Conditions,Clouds,dailyrainin,SoftwareType,DateUTC
2013-05-06 00:00:00,64.8,47.7,29.85,SE,135,0.4,0.9,54,0.00,,,0.00,WUHU216HW,2013-05-06 07:00:00,
2013-05-06 00:05:00,64.6,47.5,29.85,ESE,113,0.7,2.0,54,0.00,,,0.00,WUHU216HW,2013-05-06 07:05:00,
2013-05-06 00:10:00,64.6,47.5,29.85,SSE,158,0.9,2.0,54,0.00,,,0.00,WUHU216HW,2013-05-06 07:10:00,
2013-05-06 00:15:00,64.6,47.5,29.85,South,180,1.6,1.6,54,0.00,,,0.00,WUHU216HW,2013-05-06 07:15:00,
2013-05-06 00:20:00,64.4,47.4,29.85,ESE,113,0.0,1.6,54,0.00,,,0.00,WUHU216HW,2013-05-06 07:20:00,
2013-05-06 00:25:00,64.4,47.4,29.85,South,180,0.4,1.1,54,0.00,,,0.00,WUHU216HW,2013-05-06 07:25:00,
2013-05-06 00:30:00,64.3,47.6,29.85,SSE,158,1.1,1.1,55,0.00,,,0.00,WUHU216HW,2013-05-06 07:30:00,
2013-05-06 00:35:00,64.3,47.6,29.86,South,180,0.0,1.3,55,0.00,,,0.00,WUHU216HW,2013-05-06 07:35:00,
2013-05-06 00:40:00,64.1,47.4,29.86,SSE,158,0.0,1.3,55,0.00,,,0.00,WUHU216HW,2013-05-06 07:40:00,
2013-05-06 00:45:00,64.1,47.4,29.86,SSW,203,0.4,0.9,55,0.00,,,0.00,WUHU216HW,2013-05-06 07:45:00,
2013-05-06 00:50:00,64.1,47.4,29.86,SSW,203,0.0,0.9,55,0.00,,,0.00,WUHU216HW,2013-05-06 07:50:00,
2013-05-06 00:56:00,63.9,47.4,29.86,SSW,203,0.0,0.9,55,0.00,,,0.00,WUHU216HW,2013-05-06 07:56:00,
2013-05-06 01:01:00,63.9,47.8,29.86,South,180,0.0,0.4,56,0.00,,,0.00,WUHU216HW,2013-05-06 08:01:00,
2013-05-06 01:06:00,63.7,47.6,29.86,South,180,0.0,0.4,56,0.00,,,0.00,WUHU216HW,2013-05-06 08:06:00,
2013-05-06 01:11:00,63.5,47.4,29.87,SSE,158,0.0,0.7,56,0.00,,,0.00,WUHU216HW,2013-05-06 08:11:00,
2013-05-06 01:16:00,63.4,47.8,29.87,SSE,158,0.0,0.7,57,0.00,,,0.00,WUHU216HW,2013-05-06 08:16:00,
2013-05-06 01:21:00,63.4,47.8,29.87,SSE,158,0.0,0.0,57,0.00,,,0.00,WUHU216HW,2013-05-06 08:21:00,
2013-05-06 01:26:00,63.4,47.8,29.87,SSE,158,0.0,0.0,57,0.00,,,0.00,WUHU216HW,2013-05-06 08:26:00,
2013-05-06 01:31:00,63.4,47.8,29.87,SE,135,0.0,1.1,57,0.00,,,0.00,WUHU216HW,2013-05-06 08:31:00,
2013-05-06 01:36:00,63.2,47.6,29.87,SE,135,0.0,1.1,57,0.00,,,0.00,WUHU216HW,2013-05-06 08:36:00,
2013-05-06 01:41:00,63.4,48.2,29.87,SW,225,0.0,0.7,58,0.00,,,0.00,WUHU216HW,2013-05-06 08:41:00,
2013-05-06 01:46:00,63.4,48.2,29.87,SSW,203,1.1,1.1,58,0.00,,,0.00,WUHU216HW,2013-05-06 08:46:00,
2013-05-06 01:51:00,63.4,48.2,29.87,SSW,203,0.4,1.1,58,0.00,,,0.00,WUHU216HW,2013-05-06 08:51:00,
2013-05-06 01:57:00,63.4,48.2,29.87,SSE,158,0.0,1.3,58,0.00,,,0.00,WUHU216HW,2013-05-06 08:57:00,
2013-05-06 02:02:00,63.2,48.2,29.87,SSE,158,0.0,1.3,58,0.00,,,0.00,WUHU216HW,2013-05-06 09:02:00,
2013-05-06 02:07:00,63.2,48.2,29.87,SSE,158,0.4,0.7,58,0.00,,,0.00,WUHU216HW,2013-05-06 09:07:00,
2013-05-06 02:12:00,63.2,48.2,29.86,SSE,158,0.4,0.7,58,0.00,,,0.00,WUHU216HW,2013-05-06 09:12:00,
2013-05-06 02:17:00,63.2,48.2,29.86,SSE,158,0.4,0.7,58,0.00,,,0.00,WUHU216HW,2013-05-06 09:17:00,
2013-05-06 02:22:00,63.0,48.0,29.86,SSW,203,0.0,1.8,58,0.00,,,0.00,WUHU216HW,2013-05-06 09:22:00,
2013-05-06 02:27:00,63.0,48.0,29.86,South,180,0.4,1.8,58,0.00,,,0.00,WUHU216HW,2013-05-06 09:27:00,
2013-05-06 02:32:00,63.0,48.4,29.86,SSE,158,0.4,0.9,59,0.00,,,0.00,WUHU216HW,2013-05-06 09:32:00,
2013-05-06 02:37:00,62.8,48.2,29.86,SSE,158,0.4,1.6,59,0.00,,,0.00,WUHU216HW,2013-05-06 09:37:00,
2013-05-06 02:42:00,62.8,48.2,29.86,SSW,203,1.1,1.6,59,0.00,,,0.00,WUHU216HW,2013-05-06 09:42:00,
2013-05-06 02:47:00,62.8,48.2,29.86,South,180,0.0,1.3,59,0.00,,,0.00,WUHU216HW,2013-05-06 09:47:00,
2013-05-06 02:53:00,62.6,48.2,29.86,SE,135,0.4,1.1,59,0.00,,,0.00,WUHU216HW,2013-05-06 09:53:00,
2013-05-06 02:58:00,62.6,48.2,29.86,SSW,203,0.0,0.7,59,0.00,,,0.00,WUHU216HW,2013-05-06 09:58:00,
2013-05-06 03:03:00,62.5,48.0,29.86,South,180,0.4,0.7,59,0.00,,,0.00,WUHU216HW,2013-05-06 10:03:00,
2013-05-06 03:08:00,62.3,47.8,29.87,South,180,0.4,0.9,59,0.00,,,0.00,WUHU216HW,2013-05-06 10:08:00,
2013-05-06 03:13:00,62.3,48.2,29.86,SSE,158,0.0,0.9,60,0.00,,,0.00,WUHU216HW,2013-05-06 10:13:00,
2013-05-06 03:18:00,62.3,48.2,29.86,SW,225,0.7,1.6,60,0.00,,,0.00,WUHU216HW,2013-05-06 10:18:00,
2013-05-06 03:23:00,62.1,48.2,29.86,SSW,203,0.2,1.6,60,0.00,,,0.00,WUHU216HW,2013-05-06 10:23:00,
2013-05-06 03:28:00,62.1,48.2,29.86,East,90,0.0,0.9,60,0.00,,,0.00,WUHU216HW,2013-05-06 10:28:00,
2013-05-06 03:33:00,61.9,48.3,29.86,SW,225,0.2,1.1,61,0.00,,,0.00,WUHU216HW,2013-05-06 10:33:00,
2013-05-06 03:38:00,61.7,48.3,29.86,SSW,203,0.0,2.0,61,0.00,,,0.00,WUHU216HW,2013-05-06 10:38:00,
2013-05-06 03:43:00,61.6,48.1,29.86,South,180,0.4,2.0,61,0.00,,,0.00,WUHU216HW,2013-05-06 10:43:00,
2013-05-06 03:49:00,61.6,48.1,29.85,SSW,203,0.4,1.1,61,0.00,,,0.00,WUHU216HW,2013-05-06 10:49:00,
2013-05-06 03:54:00,61.6,48.4,29.85,South,180,0.4,1.1,62,0.00,,,0.00,WUHU216HW,2013-05-06 10:54:00,
2013-05-06 03:59:00,61.4,48.3,29.85,SSE,158,0.4,1.1,62,0.00,,,0.00,WUHU216HW,2013-05-06 10:59:00,
2013-05-06 04:04:00,61.4,48.3,29.86,ESE,113,0.0,0.4,62,0.00,,,0.00,WUHU216HW,2013-05-06 11:04:00,
2013-05-06 04:09:00,61.2,48.5,29.87,ESE,113,0.0,0.4,63,0.00,,,0.00,WUHU216HW,2013-05-06 11:09:00,
2013-05-06 04:14:00,61.0,48.4,29.87,ESE,113,0.0,0.0,63,0.00,,,0.00,WUHU216HW,2013-05-06 11:14:00,
2013-05-06 04:19:00,61.0,48.4,29.87,SSW,203,0.4,1.1,63,0.00,,,0.00,WUHU216HW,2013-05-06 11:19:00,
2013-05-06 04:24:00,61.0,48.4,29.87,SE,135,0.0,1.1,63,0.00,,,0.00,WUHU216HW,2013-05-06 11:24:00,
2013-05-06 04:29:00,61.0,48.4,29.87,SE,135,0.0,0.9,63,0.00,,,0.00,WUHU216HW,2013-05-06 11:29:00,
2013-05-06 04:34:00,61.0,48.4,29.87,SE,135,0.0,0.0,63,0.00,,,0.00,WUHU216HW,2013-05-06 11:34:00,
2013-05-06 04:39:00,61.0,48.4,29.87,SE,135,0.0,0.2,63,0.00,,,0.00,WUHU216HW,2013-05-06 11:39:00,
2013-05-06 04:44:00,61.0,48.8,29.87,SW,225,0.0,0.7,64,0.00,,,0.00,WUHU216HW,2013-05-06 11:44:00,
2013-05-06 04:50:00,61.0,48.8,29.87,SSW,203,0.0,0.7,64,0.00,,,0.00,WUHU216HW,2013-05-06 11:50:00,
2013-05-06 04:55:00,61.0,48.8,29.88,SSW,203,0.0,0.2,64,0.00,,,0.00,WUHU216HW,2013-05-06 11:55:00,
2013-05-06 05:00:00,60.8,48.6,29.88,SE,135,1.1,1.1,64,0.00,,,0.00,WUHU216HW,2013-05-06 12:00:00,
2013-05-06 05:05:00,61.0,48.8,29.88,SSE,158,0.4,1.1,64,0.00,,,0.00,WUHU216HW,2013-05-06 12:05:00,
2013-05-06 05:10:00,61.0,48.8,29.88,SSW,203,0.4,0.7,64,0.00,,,0.00,WUHU216HW,2013-05-06 12:10:00,
2013-05-06 05:15:00,61.0,48.8,29.88,SSW,203,0.0,0.4,64,0.00,,,0.00,WUHU216HW,2013-05-06 12:15:00,
2013-05-06 05:20:00,61.2,49.0,29.88,SSW,203,0.0,0.0,64,0.00,,,0.00,WUHU216HW,2013-05-06 12:20:00,
2013-05-06 05:25:00,61.2,49.4,29.88,SW,225,0.0,0.2,65,0.00,,,0.00,WUHU216HW,2013-05-06 12:25:00,
2013-05-06 05:30:00,61.2,49.4,29.89,SSW,203,0.0,0.2,65,0.00,,,0.00,WUHU216HW,2013-05-06 12:30:00,
2013-05-06 05:35:00,61.2,49.4,29.89,SW,225,0.0,0.0,65,0.00,,,0.00,WUHU216HW,2013-05-06 12:35:00,
2013-05-06 05:40:00,61.2,49.4,29.89,SW,225,0.0,0.0,65,0.00,,,0.00,WUHU216HW,2013-05-06 12:40:00,
2013-05-06 05:45:00,61.2,49.4,29.89,West,270,0.0,0.0,65,0.00,,,0.00,WUHU216HW,2013-05-06 12:45:00,
2013-05-06 05:51:00,61.2,49.4,29.89,West,270,0.0,0.0,65,0.00,,,0.00,WUHU216HW,2013-05-06 12:51:00,
2013-05-06 05:56:00,61.2,49.4,29.89,NE,45,0.0,0.4,65,0.00,,,0.00,WUHU216HW,2013-05-06 12:56:00,
2013-05-06 06:01:00,61.2,49.8,29.89,NE,45,0.0,0.4,66,0.00,,,0.00,WUHU216HW,2013-05-06 13:01:00,
2013-05-06 06:06:00,61.2,49.8,29.89,NNE,23,0.4,0.4,66,0.00,,,0.00,WUHU216HW,2013-05-06 13:06:00,
2013-05-06 06:11:00,61.2,49.8,29.89,SW,225,0.0,0.4,66,0.00,,,0.00,WUHU216HW,2013-05-06 13:11:00,
2013-05-06 06:16:00,61.2,49.8,29.90,NW,315,0.4,0.4,66,0.00,,,0.00,WUHU216HW,2013-05-06 13:16:00,
2013-05-06 06:21:00,61.4,50.0,29.90,SE,135,1.1,1.1,66,0.00,,,0.00,WUHU216HW,2013-05-06 13:21:00,
2013-05-06 06:26:00,61.2,50.2,29.90,SW,225,0.0,1.1,67,0.00,,,0.00,WUHU216HW,2013-05-06 13:26:00,
2013-05-06 06:31:00,61.0,50.5,29.90,WSW,248,0.0,0.4,68,0.00,,,0.00,WUHU216HW,2013-05-06 13:31:00,
2013-05-06 06:36:00,60.8,50.7,29.90,WSW,248,0.0,0.4,69,0.01,,,0.01,WUHU216HW,2013-05-06 13:36:00,
2013-05-06 06:41:00,60.7,50.5,29.90,WSW,248,0.0,0.0,69,0.01,,,0.01,WUHU216HW,2013-05-06 13:41:00,
2013-05-06 06:46:00,60.5,50.8,29.90,West,270,0.0,0.2,70,0.01,,,0.01,WUHU216HW,2013-05-06 13:46:00,
2013-05-06 06:51:00,60.5,51.1,29.90,NE,45,0.0,0.2,71,0.02,,,0.01,WUHU216HW,2013-05-06 13:51:00,
2013-05-06 06:57:00,60.3,51.3,29.91,SE,135,0.0,0.2,72,0.02,,,0.02,WUHU216HW,2013-05-06 13:57:00,
2013-05-06 07:02:00,60.1,51.1,29.91,ESE,113,0.0,0.4,72,0.02,,,0.02,WUHU216HW,2013-05-06 14:02:00,
2013-05-06 07:07:00,60.1,51.5,29.91,ESE,113,0.0,0.4,73,0.02,,,0.02,WUHU216HW,2013-05-06 14:07:00,
2013-05-06 07:12:00,60.1,51.5,29.91,ESE,113,0.0,0.0,73,0.02,,,0.02,WUHU216HW,2013-05-06 14:12:00,
2013-05-06 07:17:00,60.1,51.5,29.91,ESE,113,0.0,0.0,73,0.02,,,0.02,WUHU216HW,2013-05-06 14:17:00,
2013-05-06 07:22:00,60.1,51.8,29.91,ESE,113,0.0,0.0,74,0.02,,,0.02,WUHU216HW,2013-05-06 14:22:00,
2013-05-06 07:27:00,60.1,51.8,29.91,ESE,113,0.0,0.0,74,0.02,,,0.02,WUHU216HW,2013-05-06 14:27:00,
2013-05-06 07:32:00,60.1,51.8,29.91,ESE,113,0.0,0.0,74,0.01,,,0.02,WUHU216HW,2013-05-06 14:32:00,
2013-05-06 07:37:00,60.1,52.2,29.91,ESE,113,0.0,0.0,75,0.01,,,0.02,WUHU216HW,2013-05-06 14:37:00,
2013-05-06 07:42:00,60.1,52.2,29.91,ESE,113,0.0,0.0,75,0.01,,,0.02,WUHU216HW,2013-05-06 14:42:00,
2013-05-06 07:47:00,60.3,52.4,29.92,ESE,113,0.0,0.0,75,0.01,,,0.02,WUHU216HW,2013-05-06 14:47:00,
2013-05-06 07:53:00,60.5,52.9,29.92,ESE,113,0.0,0.0,76,0.00,,,0.02,WUHU216HW,2013-05-06 14:53:00,
2013-05-06 07:58:00,60.8,53.3,29.92,ESE,113,0.0,0.0,76,0.00,,,0.02,WUHU216HW,2013-05-06 14:58:00,
2013-05-06 08:03:00,60.8,53.3,29.92,ESE,113,0.0,0.2,76,0.00,,,0.02,WUHU216HW,2013-05-06 15:03:00,
2013-05-06 08:08:00,61.0,53.5,29.92,SE,135,0.0,0.2,76,0.00,,,0.02,WUHU216HW,2013-05-06 15:08:00,
2013-05-06 08:13:00,61.0,53.5,29.92,SW,225,0.7,0.7,76,0.00,,,0.02,WUHU216HW,2013-05-06 15:13:00,
2013-05-06 08:18:00,61.2,53.3,29.92,NNE,23,0.0,0.7,75,0.00,,,0.02,WUHU216HW,2013-05-06 15:18:00,
2013-05-06 08:23:00,61.2,53.3,29.92,North,0,0.0,0.4,75,0.00,,,0.02,WUHU216HW,2013-05-06 15:23:00,
2013-05-06 08:28:00,61.4,53.0,29.93,North,0,0.0,0.4,74,0.00,,,0.02,WUHU216HW,2013-05-06 15:28:00,
2013-05-06 08:33:00,61.4,53.0,29.93,South,180,0.0,0.9,74,0.00,,,0.02,WUHU216HW,2013-05-06 15:33:00,
2013-05-06 08:38:00,61.4,53.4,29.93,South,180,0.2,0.9,75,0.00,,,0.02,WUHU216HW,2013-05-06 15:38:00,
2013-05-06 08:43:00,61.4,53.0,29.93,SE,135,0.2,0.2,74,0.00,,,0.02,WUHU216HW,2013-05-06 15:43:00,
2013-05-06 08:48:00,61.6,53.6,29.93,ESE,113,0.0,0.2,75,0.00,,,0.02,WUHU216HW,2013-05-06 15:48:00,
2013-05-06 08:53:00,61.7,53.7,29.93,SE,135,0.0,0.2,75,0.00,,,0.02,WUHU216HW,2013-05-06 15:53:00,
2013-05-06 08:58:00,62.1,54.1,29.93,SE,135,0.0,0.0,75,0.00,,,0.02,WUHU216HW,2013-05-06 15:58:00,
2013-05-06 09:03:00,62.3,54.2,29.93,SE,135,0.0,0.0,75,0.00,,,0.02,WUHU216HW,2013-05-06 16:03:00,
2013-05-06 09:08:00,62.5,54.0,29.93,NNE,23,0.2,0.4,74,0.00,,,0.02,WUHU216HW,2013-05-06 16:08:00,
2013-05-06 09:13:00,62.5,53.6,29.93,NE,45,0.2,0.4,73,0.00,,,0.02,WUHU216HW,2013-05-06 16:13:00,
2013-05-06 09:18:00,62.5,53.3,29.93,NNE,23,0.2,0.2,72,0.00,,,0.02,WUHU216HW,2013-05-06 16:18:00,
2013-05-06 09:23:00,62.6,53.8,29.93,NNE,23,0.0,0.2,73,0.00,,,0.02,WUHU216HW,2013-05-06 16:23:00,
2013-05-06 09:29:00,63.0,54.5,29.93,NNE,23,0.0,0.2,74,0.00,,,0.02,WUHU216HW,2013-05-06 16:29:00,
2013-05-06 09:34:00,63.2,54.4,29.93,NNW,338,0.0,0.9,73,0.00,,,0.02,WUHU216HW,2013-05-06 16:34:00,
2013-05-06 09:39:00,63.4,54.5,29.94,WNW,293,0.0,0.9,73,0.00,,,0.02,WUHU216HW,2013-05-06 16:39:00,
2013-05-06 09:44:00,63.7,54.9,29.94,SSE,158,0.0,0.4,73,0.00,,,0.02,WUHU216HW,2013-05-06 16:44:00,
2013-05-06 09:49:00,64.1,54.9,29.94,NNE,23,0.2,1.1,72,0.00,,,0.02,WUHU216HW,2013-05-06 16:49:00,
2013-05-06 09:54:00,64.1,54.5,29.94,North,0,0.2,1.1,71,0.00,,,0.02,WUHU216HW,2013-05-06 16:54:00,
2013-05-06 09:59:00,64.3,54.7,29.94,NNE,23,0.2,0.4,71,0.00,,,0.02,WUHU216HW,2013-05-06 16:59:00,
2013-05-06 10:04:00,64.4,54.9,29.94,NE,45,1.3,1.3,71,0.00,,,0.02,WUHU216HW,2013-05-06 17:04:00,
2013-05-06 10:09:00,64.6,54.7,29.94,NNE,23,1.1,1.3,70,0.00,,,0.02,WUHU216HW,2013-05-06 17:09:00,
2013-05-06 10:14:00,64.8,54.9,29.94,NE,45,0.4,2.0,70,0.00,,,0.02,WUHU216HW,2013-05-06 17:14:00,
2013-05-06 10:19:00,65.0,54.2,29.94,NNE,23,0.4,2.0,68,0.00,,,0.02,WUHU216HW,2013-05-06 17:19:00,
2013-05-06 10:24:00,65.2,54.4,29.94,NW,315,0.0,1.1,68,0.00,,,0.02,WUHU216HW,2013-05-06 17:24:00,
2013-05-06 10:29:00,65.7,54.5,29.94,NNE,23,0.4,1.1,67,0.00,,,0.02,WUHU216HW,2013-05-06 17:29:00,
2013-05-06 10:34:00,65.9,54.5,29.95,ENE,68,0.4,1.1,67,0.00,,,0.02,WUHU216HW,2013-05-06 17:34:00,
2013-05-06 10:39:00,66.2,54.9,29.95,East,90,0.0,2.7,67,0.00,,,0.02,WUHU216HW,2013-05-06 17:39:00,
2013-05-06 10:44:00,66.6,55.3,29.94,North,0,1.8,2.7,67,0.00,,,0.02,WUHU216HW,2013-05-06 17:44:00,
2013-05-06 10:49:00,67.3,55.5,29.94,SSW,203,0.9,3.6,66,0.00,,,0.02,WUHU216HW,2013-05-06 17:49:00,
2013-05-06 10:55:00,67.9,55.6,29.94,East,90,0.4,3.6,65,0.00,,,0.02,WUHU216HW,2013-05-06 17:55:00,
2013-05-06 11:00:00,68.2,55.5,29.94,SSE,158,1.1,2.7,64,0.00,,,0.02,WUHU216HW,2013-05-06 18:00:00,
2013-05-06 11:05:00,68.8,55.6,29.95,NE,45,0.2,1.3,63,0.00,,,0.02,WUHU216HW,2013-05-06 18:05:00,
2013-05-06 11:10:00,69.1,55.2,29.95,North,0,0.4,1.6,61,0.00,,,0.02,WUHU216HW,2013-05-06 18:10:00,
2013-05-06 11:15:00,69.3,55.4,29.95,SE,135,0.4,1.6,61,0.00,,,0.02,WUHU216HW,2013-05-06 18:15:00,
2013-05-06 11:20:00,69.8,55.4,29.94,NE,45,1.8,5.1,60,0.00,,,0.02,WUHU216HW,2013-05-06 18:20:00,
2013-05-06 11:25:00,70.2,54.7,29.94,NNW,338,1.6,5.1,58,0.00,,,0.02,WUHU216HW,2013-05-06 18:25:00,
2013-05-06 11:30:00,70.0,55.1,29.95,NE,45,0.4,4.0,59,0.00,,,0.02,WUHU216HW,2013-05-06 18:30:00,
2013-05-06 11:35:00,70.6,55.1,29.95,North,0,3.4,4.0,58,0.00,,,0.02,WUHU216HW,2013-05-06 18:35:00,
2013-05-06 11:40:00,70.9,55.5,29.95,NNW,338,1.1,3.4,58,0.00,,,0.02,WUHU216HW,2013-05-06 18:40:00,
2013-05-06 11:45:00,71.6,54.5,29.94,North,0,2.9,2.9,55,0.00,,,0.02,WUHU216HW,2013-05-06 18:45:00,
2013-05-06 11:50:00,71.6,54.5,29.94,North,0,1.1,4.5,55,0.00,,,0.02,WUHU216HW,2013-05-06 18:50:00,
2013-05-06 11:55:00,72.0,54.4,29.94,ENE,68,1.1,4.5,54,0.00,,,0.02,WUHU216HW,2013-05-06 18:55:00,
2013-05-06 12:00:00,72.4,55.2,29.94,NE,45,0.7,2.9,55,0.00,,,0.02,WUHU216HW,2013-05-06 19:00:00,
2013-05-06 12:05:00,72.4,54.2,29.94,NW,315,2.9,2.9,53,0.00,,,0.02,WUHU216HW,2013-05-06 19:05:00,
2013-05-06 12:10:00,72.4,54.2,29.94,East,90,1.1,2.9,53,0.00,,,0.02,WUHU216HW,2013-05-06 19:10:00,
2013-05-06 12:16:00,72.5,53.4,29.94,ESE,113,0.7,2.2,51,0.00,,,0.02,WUHU216HW,2013-05-06 19:16:00,
2013-05-06 12:21:00,72.2,53.6,29.93,SSE,158,0.7,1.8,52,0.00,,,0.02,WUHU216HW,2013-05-06 19:21:00,
2013-05-06 12:26:00,72.0,52.8,29.93,NE,45,1.8,3.6,51,0.00,,,0.02,WUHU216HW,2013-05-06 19:26:00,
2013-05-06 12:31:00,72.0,53.4,29.93,NNW,338,1.1,3.6,52,0.00,,,0.02,WUHU216HW,2013-05-06 19:31:00,
2013-05-06 12:36:00,72.0,53.4,29.93,NNW,338,0.7,1.6,52,0.00,,,0.02,WUHU216HW,2013-05-06 19:36:00,
2013-05-06 12:41:00,71.8,52.7,29.92,ESE,113,0.9,2.2,51,0.00,,,0.02,WUHU216HW,2013-05-06 19:41:00,
2013-05-06 12:46:00,71.8,53.2,29.92,ENE,68,1.1,2.2,52,0.00,,,0.02,WUHU216HW,2013-05-06 19:46:00,
2013-05-06 12:51:00,72.2,53.0,29.92,NNW,338,0.9,1.8,51,0.00,,,0.02,WUHU216HW,2013-05-06 19:51:00,
2013-05-06 12:56:00,72.7,53.0,29.93,ENE,68,0.9,1.8,50,0.00,,,0.02,WUHU216HW,2013-05-06 19:56:00,
2013-05-06 13:01:00,73.1,52.1,29.92,North,0,0.9,2.5,48,0.00,,,0.02,WUHU216HW,2013-05-06 20:01:00,
2013-05-06 13:06:00,73.3,52.3,29.92,NNW,338,1.1,2.9,48,0.00,,,0.02,WUHU216HW,2013-05-06 20:06:00,
2013-05-06 13:11:00,73.1,51.6,29.92,NNE,23,2.0,4.3,47,0.00,,,0.02,WUHU216HW,2013-05-06 20:11:00,
2013-05-06 13:16:00,73.4,52.5,29.92,East,90,2.0,4.3,48,0.00,,,0.02,WUHU216HW,2013-05-06 20:16:00,
2013-05-06 13:21:00,73.8,52.8,29.92,NE,45,0.2,3.4,48,0.00,,,0.02,WUHU216HW,2013-05-06 20:21:00,
2013-05-06 13:26:00,74.2,52.6,29.92,NNW,338,1.6,3.1,47,0.00,,,0.02,WUHU216HW,2013-05-06 20:26:00,
2013-05-06 13:31:00,74.3,52.8,29.92,NNE,23,1.1,2.5,47,0.00,,,0.02,WUHU216HW,2013-05-06 20:31:00,
2013-05-06 13:36:00,73.8,52.2,29.92,ENE,68,2.0,2.5,47,0.00,,,0.02,WUHU216HW,2013-05-06 20:36:00,
2013-05-06 13:41:00,73.6,52.0,29.92,East,90,2.7,2.7,47,0.00,,,0.02,WUHU216HW,2013-05-06 20:41:00,
2013-05-06 13:46:00,73.3,52.3,29.92,ENE,68,1.1,2.7,48,0.00,,,0.02,WUHU216HW,2013-05-06 20:46:00,
2013-05-06 13:52:00,73.1,52.1,29.92,NE,45,0.9,2.0,48,0.00,,,0.02,WUHU216HW,2013-05-06 20:52:00,
2013-05-06 13:57:00,73.3,51.7,29.92,NNE,23,5.4,5.4,47,0.00,,,0.02,WUHU216HW,2013-05-06 20:57:00,
2013-05-06 14:02:00,73.1,51.6,29.92,NNE,23,2.2,5.4,47,0.00,,,0.02,WUHU216HW,2013-05-06 21:02:00,
2013-05-06 14:07:00,73.3,52.9,29.92,NNW,338,2.2,3.8,49,0.00,,,0.02,WUHU216HW,2013-05-06 21:07:00,
2013-05-06 14:12:00,73.1,52.1,29.92,WSW,248,1.8,3.8,48,0.00,,,0.02,WUHU216HW,2013-05-06 21:12:00,
2013-05-06 14:17:00,72.7,52.4,29.92,NNW,338,0.7,2.5,49,0.00,,,0.02,WUHU216HW,2013-05-06 21:17:00,
2013-05-06 14:22:00,72.5,52.2,29.92,NW,315,0.9,1.8,49,0.00,,,0.02,WUHU216HW,2013-05-06 21:22:00,
2013-05-06 14:27:00,72.4,52.1,29.92,ENE,68,0.4,1.1,49,0.00,,,0.02,WUHU216HW,2013-05-06 21:27:00,
2013-05-06 14:32:00,72.4,53.2,29.92,North,0,0.7,1.3,51,0.00,,,0.02,WUHU216HW,2013-05-06 21:32:00,
2013-05-06 14:37:00,72.2,53.6,29.92,NNE,23,0.4,1.8,52,0.00,,,0.02,WUHU216HW,2013-05-06 21:37:00,
2013-05-06 14:42:00,72.2,53.6,29.92,NNW,338,0.2,1.8,52,0.00,,,0.02,WUHU216HW,2013-05-06 21:42:00,
2013-05-06 14:47:00,72.5,53.8,29.91,NNW,338,0.0,1.1,52,0.00,,,0.02,WUHU216HW,2013-05-06 21:47:00,
2013-05-06 14:52:00,72.9,53.6,29.91,NNW,338,2.0,2.0,51,0.00,,,0.02,WUHU216HW,2013-05-06 21:52:00,
2013-05-06 14:57:00,72.9,53.6,29.91,NNW,338,1.1,3.1,51,0.00,,,0.02,WUHU216HW,2013-05-06 21:57:00,
2013-05-06 15:03:00,73.1,53.3,29.91,NNW,338,0.4,3.1,50,0.00,,,0.02,WUHU216HW,2013-05-06 22:03:00,
2013-05-06 15:08:00,73.3,52.9,29.91,ESE,113,3.6,3.6,49,0.00,,,0.02,WUHU216HW,2013-05-06 22:08:00,
2013-05-06 15:13:00,73.8,53.4,29.91,NW,315,2.2,3.6,49,0.00,,,0.02,WUHU216HW,2013-05-06 22:13:00,
2013-05-06 15:18:00,73.8,52.8,29.90,NW,315,2.0,2.9,48,0.00,,,0.02,WUHU216HW,2013-05-06 22:18:00,
2013-05-06 15:23:00,74.3,53.4,29.90,NW,315,1.8,3.1,48,0.00,,,0.02,WUHU216HW,2013-05-06 22:23:00,
2013-05-06 15:28:00,74.7,52.5,29.90,NNE,23,2.2,4.5,46,0.00,,,0.02,WUHU216HW,2013-05-06 22:28:00,
2013-05-06 15:33:00,74.7,53.1,29.90,NNE,23,2.2,4.5,47,0.00,,,0.02,WUHU216HW,2013-05-06 22:33:00,
2013-05-06 15:38:00,74.9,53.3,29.90,NNE,23,2.0,3.8,47,0.00,,,0.02,WUHU216HW,2013-05-06 22:38:00,
2013-05-06 15:43:00,75.2,52.4,29.90,NE,45,2.0,3.8,45,0.00,,,0.02,WUHU216HW,2013-05-06 22:43:00,
2013-05-06 15:48:00,74.7,52.5,29.90,WSW,248,1.6,4.0,46,0.00,,,0.02,WUHU216HW,2013-05-06 22:48:00,
2013-05-06 15:53:00,74.5,52.3,29.89,NW,315,1.3,3.4,46,0.00,,,0.02,WUHU216HW,2013-05-06 22:53:00,
2013-05-06 15:58:00,74.5,52.3,29.89,SE,135,1.1,3.6,46,0.00,,,0.02,WUHU216HW,2013-05-06 22:58:00,
2013-05-06 16:03:00,74.3,52.1,29.89,NNE,23,2.5,4.3,46,0.00,,,0.02,WUHU216HW,2013-05-06 23:03:00,
2013-05-06 16:08:00,74.3,51.6,29.89,NE,45,2.5,5.6,45,0.00,,,0.02,WUHU216HW,2013-05-06 23:08:00,
2013-05-06 16:13:00,74.3,52.1,29.88,East,90,0.9,5.6,46,0.00,,,0.02,WUHU216HW,2013-05-06 23:13:00,
2013-05-06 16:18:00,74.3,51.6,29.88,SSW,203,0.4,4.0,45,0.00,,,0.02,WUHU216HW,2013-05-06 23:18:00,
2013-05-06 16:24:00,74.3,51.6,29.88,NE,45,0.9,4.0,45,0.00,,,0.02,WUHU216HW,2013-05-06 23:24:00,
2013-05-06 16:29:00,74.3,52.1,29.88,NNW,338,1.3,3.8,46,0.00,,,0.02,WUHU216HW,2013-05-06 23:29:00,
2013-05-06 16:34:00,74.3,51.6,29.88,NW,315,1.3,4.5,45,0.00,,,0.02,WUHU216HW,2013-05-06 23:34:00,
2013-05-06 16:39:00,74.0,51.8,29.88,West,270,2.7,4.5,46,0.00,,,0.02,WUHU216HW,2013-05-06 23:39:00,
2013-05-06 16:44:00,73.8,51.6,29.88,ENE,68,1.8,3.8,46,0.00,,,0.02,WUHU216HW,2013-05-06 23:44:00,
2013-05-06 16:49:00,73.8,51.6,29.88,West,270,0.7,6.5,46,0.00,,,0.02,WUHU216HW,2013-05-06 23:49:00,
2013-05-06 16:54:00,73.8,51.6,29.88,ENE,68,1.3,6.5,46,0.00,,,0.02,WUHU216HW,2013-05-06 23:54:00,
2013-05-06 16:59:00,74.0,51.8,29.88,NNE,23,2.5,2.7,46,0.00,,,0.02,WUHU216HW,2013-05-06 23:59:00,
2013-05-06 17:04:00,74.0,52.4,29.88,NNE,23,2.5,3.4,47,0.00,,,0.02,WUHU216HW,2013-05-07 00:04:00,
2013-05-06 17:09:00,74.2,51.9,29.88,North,0,1.8,5.1,46,0.00,,,0.02,WUHU216HW,2013-05-07 00:09:00,
2013-05-06 17:14:00,74.2,51.9,29.88,NNE,23,0.7,5.1,46,0.00,,,0.02,WUHU216HW,2013-05-07 00:14:00,
2013-05-06 17:19:00,74.3,52.1,29.88,NW,315,2.5,3.6,46,0.00,,,0.02,WUHU216HW,2013-05-07 00:19:00,
2013-05-06 17:24:00,74.3,52.1,29.88,NNE,23,0.4,3.6,46,0.00,,,0.02,WUHU216HW,2013-05-07 00:24:00,
2013-05-06 17:29:00,74.5,51.7,29.88,NE,45,1.3,2.5,45,0.00,,,0.02,WUHU216HW,2013-05-07 00:29:00,
2013-05-06 17:34:00,74.3,51.6,29.88,SSE,158,0.7,2.9,45,0.00,,,0.02,WUHU216HW,2013-05-07 00:34:00,
2013-05-06 17:39:00,74.2,51.4,29.88,West,270,1.1,2.9,45,0.00,,,0.02,WUHU216HW,2013-05-07 00:39:00,
2013-05-06 17:45:00,74.2,50.8,29.88,ENE,68,1.8,1.8,44,0.00,,,0.02,WUHU216HW,2013-05-07 00:45:00,
2013-05-06 17:50:00,74.0,51.2,29.88,NNE,23,1.8,3.4,45,0.00,,,0.02,WUHU216HW,2013-05-07 00:50:00,
2013-05-06 17:55:00,74.0,51.2,29.88,NW,315,1.8,3.4,45,0.00,,,0.02,WUHU216HW,2013-05-07 00:55:00,
2013-05-06 18:00:00,73.8,51.0,29.88,North,0,1.1,2.9,45,0.00,,,0.02,WUHU216HW,2013-05-07 01:00:00,
2013-05-06 18:05:00,74.0,51.8,29.88,NW,315,1.1,2.9,46,0.00,,,0.02,WUHU216HW,2013-05-07 01:05:00,
2013-05-06 18:10:00,74.2,51.9,29.88,NE,45,1.3,3.6,46,0.00,,,0.02,WUHU216HW,2013-05-07 01:10:00,
2013-05-06 18:15:00,74.2,51.4,29.87,NNW,338,1.1,3.6,45,0.00,,,0.02,WUHU216HW,2013-05-07 01:15:00,
2013-05-06 18:20:00,74.2,51.9,29.87,SE,135,0.7,3.1,46,0.00,,,0.02,WUHU216HW,2013-05-07 01:20:00,
2013-05-06 18:25:00,73.8,51.6,29.87,NW,315,1.3,2.5,46,0.00,,,0.02,WUHU216HW,2013-05-07 01:25:00,
2013-05-06 18:30:00,73.6,51.5,29.88,SE,135,0.2,2.5,46,0.00,,,0.02,WUHU216HW,2013-05-07 01:30:00,
2013-05-06 18:35:00,73.3,52.3,29.88,ENE,68,0.4,2.5,48,0.00,,,0.02,WUHU216HW,2013-05-07 01:35:00,
2013-05-06 18:40:00,72.2,53.0,29.88,ENE,68,1.8,2.2,51,0.00,,,0.02,WUHU216HW,2013-05-07 01:40:00,
2013-05-06 18:45:00,70.6,53.6,29.89,ESE,113,1.1,2.2,55,0.01,,,0.03,WUHU216HW,2013-05-07 01:45:00,
2013-05-06 18:50:00,68.8,56.1,29.90,SW,225,1.8,1.8,64,0.06,,,0.07,WUHU216HW,2013-05-07 01:50:00,
2013-05-06 18:55:00,66.6,54.0,29.91,South,180,0.9,1.8,64,0.24,,,0.22,WUHU216HW,2013-05-07 01:55:00,
2013-05-06 19:00:00,65.2,53.5,29.91,North,0,0.9,1.3,66,0.31,,,0.33,WUHU216HW,2013-05-07 02:00:00,
2013-05-06 19:06:00,64.4,55.6,29.90,NNW,338,2.5,2.5,73,0.35,,,0.37,WUHU216HW,2013-05-07 02:06:00,
2013-05-06 19:11:00,63.9,54.7,29.90,WNW,293,0.0,2.5,72,0.35,,,0.37,WUHU216HW,2013-05-07 02:11:00,
2013-05-06 19:16:00,63.7,55.3,29.91,NW,315,1.6,1.8,74,0.37,,,0.39,WUHU216HW,2013-05-07 02:16:00,
2013-05-06 19:21:00,63.5,55.1,29.91,WNW,293,0.4,1.6,74,0.37,,,0.39,WUHU216HW,2013-05-07 02:21:00,
2013-05-06 19:26:00,63.4,54.9,29.92,NW,315,1.6,1.6,74,0.37,,,0.39,WUHU216HW,2013-05-07 02:26:00,
2013-05-06 19:31:00,63.4,55.3,29.92,West,270,0.4,1.8,75,0.37,,,0.39,WUHU216HW,2013-05-07 02:31:00,
2013-05-06 19:36:00,63.2,54.7,29.93,West,270,0.0,1.8,74,0.37,,,0.39,WUHU216HW,2013-05-07 02:36:00,
2013-05-06 19:41:00,63.0,54.9,29.93,SW,225,0.4,0.9,75,0.37,,,0.39,WUHU216HW,2013-05-07 02:41:00,
2013-05-06 19:46:00,62.8,55.1,29.93,SSE,158,2.5,2.5,76,0.37,,,0.40,WUHU216HW,2013-05-07 02:46:00,
2013-05-06 19:51:00,62.6,54.9,29.94,SSW,203,1.1,2.7,76,0.31,,,0.42,WUHU216HW,2013-05-07 02:51:00,
2013-05-06 19:56:00,62.3,54.5,29.94,South,180,1.3,2.7,76,0.11,,,0.44,WUHU216HW,2013-05-07 02:56:00,
2013-05-06 20:01:00,61.9,54.3,29.95,SSE,158,1.1,1.3,76,0.08,,,0.44,WUHU216HW,2013-05-07 03:01:00,
2013-05-06 20:06:00,61.6,54.3,29.95,SSW,203,0.4,2.5,77,0.12,,,0.49,WUHU216HW,2013-05-07 03:06:00,
2013-05-06 20:11:00,61.6,54.3,29.95,South,180,0.4,2.5,77,0.15,,,0.52,WUHU216HW,2013-05-07 03:11:00,
2013-05-06 20:16:00,61.4,54.5,29.95,SSW,203,2.2,2.2,78,0.19,,,0.57,WUHU216HW,2013-05-07 03:16:00,
2013-05-06 20:21:00,61.2,54.4,29.96,SW,225,0.2,2.2,78,0.22,,,0.61,WUHU216HW,2013-05-07 03:21:00,
2013-05-06 20:26:00,61.2,54.4,29.96,SE,135,0.0,2.2,78,0.23,,,0.62,WUHU216HW,2013-05-07 03:26:00,
2013-05-06 20:31:00,61.0,54.2,29.96,North,0,0.4,1.1,78,0.22,,,0.62,WUHU216HW,2013-05-07 03:31:00,
2013-05-06 20:37:00,60.8,54.0,29.96,NE,45,0.0,0.4,78,0.23,,,0.63,WUHU216HW,2013-05-07 03:37:00,
2013-05-06 20:42:00,60.8,54.4,29.96,NW,315,0.4,0.4,79,0.22,,,0.63,WUHU216HW,2013-05-07 03:42:00,
2013-05-06 20:47:00,60.7,54.2,29.96,NW,315,0.4,0.7,79,0.22,,,0.63,WUHU216HW,2013-05-07 03:47:00,
2013-05-06 20:52:00,60.7,54.2,29.96,WNW,293,0.7,0.7,79,0.19,,,0.63,WUHU216HW,2013-05-07 03:52:00,
2013-05-06 20:57:00,60.8,54.7,29.96,North,0,0.4,1.1,80,0.18,,,0.63,WUHU216HW,2013-05-07 03:57:00,
2013-05-06 21:01:00,60.8,54.7,29.95,NW,315,1.3,1.3,80,0.15,,,0.63,WUHU216HW,2013-05-07 04:01:00,
2013-05-06 21:02:00,60.8,54.7,29.95,NNW,338,1.1,1.3,80,0.15,,,0.63,WUHU216HW,2013-05-07 04:02:00,
2013-05-06 21:07:00,60.8,54.7,29.95,NW,315,0.9,1.8,80,0.13,,,0.64,WUHU216HW,2013-05-07 04:07:00,
2013-05-06 21:12:00,61.0,54.6,29.95,North,0,0.4,1.8,79,0.06,,,0.64,WUHU216HW,2013-05-07 04:12:00,
2013-05-06 21:17:00,61.0,54.6,29.96,NW,315,1.6,1.6,79,0.03,,,0.64,WUHU216HW,2013-05-07 04:17:00,
2013-05-06 21:22:00,61.2,54.7,29.96,NW,315,0.9,1.6,79,0.02,,,0.64,WUHU216HW,2013-05-07 04:22:00,
2013-05-06 21:27:00,61.4,54.8,29.96,NW,315,1.1,2.0,79,0.02,,,0.64,WUHU216HW,2013-05-07 04:27:00,
2013-05-06 21:32:00,61.6,55.0,29.96,NNW,338,0.4,2.0,79,0.01,,,0.64,WUHU216HW,2013-05-07 04:32:00,
2013-05-06 21:38:00,61.6,55.0,29.96,North,0,1.3,2.0,79,0.01,,,0.64,WUHU216HW,2013-05-07 04:38:00,
2013-05-06 21:43:00,61.6,55.0,29.96,NNW,338,0.2,2.0,79,0.01,,,0.64,WUHU216HW,2013-05-07 04:43:00,
2013-05-06 21:48:00,61.6,55.0,29.96,NNW,338,0.7,1.6,79,0.01,,,0.64,WUHU216HW,2013-05-07 04:48:00,
2013-05-06 21:53:00,61.6,55.4,29.96,NNW,338,1.6,1.6,80,0.01,,,0.64,WUHU216HW,2013-05-07 04:53:00,
2013-05-06 21:58:00,61.6,55.0,29.96,NNW,338,0.7,1.8,79,0.01,,,0.64,WUHU216HW,2013-05-07 04:58:00,
2013-05-06 22:03:00,61.6,55.0,29.96,North,0,1.1,1.8,79,0.00,,,0.64,WUHU216HW,2013-05-07 05:03:00,
2013-05-06 22:08:00,61.4,55.2,29.96,NW,315,1.8,1.8,80,0.00,,,0.64,WUHU216HW,2013-05-07 05:08:00,
2013-05-06 22:13:00,61.4,54.8,29.96,NW,315,0.2,1.8,79,0.00,,,0.64,WUHU216HW,2013-05-07 05:13:00,
2013-05-06 22:18:00,61.4,54.8,29.96,West,270,1.3,1.6,79,0.00,,,0.64,WUHU216HW,2013-05-07 05:18:00,
2013-05-06 22:23:00,61.2,54.7,29.96,WNW,293,0.0,1.3,79,0.00,,,0.64,WUHU216HW,2013-05-07 05:23:00,
2013-05-06 22:28:00,61.2,54.7,29.96,WNW,293,0.0,0.4,79,0.00,,,0.64,WUHU216HW,2013-05-07 05:28:00,
2013-05-06 22:33:00,60.8,54.7,29.97,WNW,293,0.4,0.4,80,0.00,,,0.64,WUHU216HW,2013-05-07 05:33:00,
2013-05-06 22:38:00,60.8,54.7,29.97,NNE,23,0.0,0.4,80,0.00,,,0.64,WUHU216HW,2013-05-07 05:38:00,
2013-05-06 22:43:00,60.8,55.1,29.97,WSW,248,0.0,0.4,81,0.00,,,0.64,WUHU216HW,2013-05-07 05:43:00,
2013-05-06 22:48:00,60.8,55.1,29.97,South,180,0.7,0.7,81,0.00,,,0.64,WUHU216HW,2013-05-07 05:48:00,
2013-05-06 22:53:00,60.8,55.1,29.97,East,90,0.2,0.7,81,0.00,,,0.64,WUHU216HW,2013-05-07 05:53:00,
2013-05-06 22:58:00,60.8,55.1,29.98,East,90,0.0,0.4,81,0.00,,,0.64,WUHU216HW,2013-05-07 05:58:00,
2013-05-06 23:03:00,60.7,54.9,29.98,East,90,0.0,0.0,81,0.00,,,0.64,WUHU216HW,2013-05-07 06:03:00,
2013-05-06 23:09:00,60.5,54.7,29.98,SE,135,0.4,0.4,81,0.00,,,0.64,WUHU216HW,2013-05-07 06:09:00,
2013-05-06 23:14:00,60.5,55.0,29.98,South,180,0.9,1.1,82,0.00,,,0.64,WUHU216HW,2013-05-07 06:14:00,
2013-05-06 23:19:00,60.1,54.6,29.99,SE,135,0.2,2.5,82,0.00,,,0.64,WUHU216HW,2013-05-07 06:19:00,
2013-05-06 23:24:00,59.9,54.2,29.99,SE,135,0.0,0.9,81,0.00,,,0.64,WUHU216HW,2013-05-07 06:24:00,
2013-05-06 23:29:00,59.9,54.5,29.99,South,180,0.9,1.3,82,0.00,,,0.64,WUHU216HW,2013-05-07 06:29:00,
2013-05-06 23:34:00,59.9,54.5,29.99,South,180,0.0,1.3,82,0.00,,,0.64,WUHU216HW,2013-05-07 06:34:00,
2013-05-06 23:39:00,59.8,54.3,29.99,South,180,0.0,0.2,82,0.00,,,0.64,WUHU216HW,2013-05-07 06:39:00,
2013-05-06 23:44:00,59.8,54.3,29.99,SSE,158,0.0,0.4,82,0.00,,,0.64,WUHU216HW,2013-05-07 06:44:00,
2013-05-06 23:49:00,59.6,54.5,30.00,SSE,158,0.2,0.4,83,0.00,,,0.64,WUHU216HW,2013-05-07 06:49:00,
2013-05-06 23:54:00,59.6,54.5,30.00,SSE,158,0.0,0.2,83,0.00,,,0.64,WUHU216HW,2013-05-07 06:54:00,
2013-05-06 23:59:00,59.6,54.5,30.00,SSE,158,0.0,0.0,83,0.00,,,0.64,WUHU216HW,2013-05-07 06:59:00,